Location: EverStaR Observatory
(38.9036°N, 94.8303°W)
Time: 10:57:55
(UTC-05:00)

Hubble Space Telescope - Pass Details

Date: 28 March 2019
Orbit: 537 x 540 km, 28.5° (Epoch: 22 April)

Event Time Altitude Azimuth Distance (km) Brightness Sun altitude
Rises 20:53:13 0° 243° (WSW) 2,673 5.1 -15.0°
Reaches altitude 10° 20:55:58 10° 226° (SW) 1,783 3.8 -15.5°
Maximum altitude 20:58:55 19° 180° (S) 1,305 2.5 -16.0°
Enters shadow 20:59:55 18° 161° (SSE) 1,368 2.5 -16.2°
